Flag for Germany Weather past 2 weeks in Bad Neuenahr-Ahrweiler, Rhineland-Palatinate, Germany

Now
48 °F

Overcast.


Feels Like: 48 °F
Forecast: 36 / 53 °F
Wind: 2 mph from Northeast

Location: Bonn-Hangelar

Current Time: Apr 27, 2015 at 7:31:44 PM

Latest Report: Apr 27, 2015 at 7:00 PM


Visibility: 28 mi

Pressure: 29.78 "Hg

Humidity: 70%

Dew point: 39 °F

Location of Bad Neuenahr-AhrweilerLocation

Historic Weather in Bad Neuenahr-Ahrweiler — Graph

°F

Bad Neuenahr-Ahrweiler temperature yesterday

Maximum temperature yesterday: 60 °F (at 3:00 PM)
Minimum temperature yesterday: 51 °F (at 3:00 AM)
Average temperature yesterday: 54 °F

Past Weeks' High & Low Weather Summary

 TemperatureHumidityPressure
High72 °F (Apr 15, 5:00 PM)100% (Apr 27, 5:00 AM)30.50 "Hg (Apr 27, 5:00 AM)
Low35 °F (Apr 19, 6:00 AM)33% (Apr 21, 5:00 PM)29.64 "Hg (Apr 27, 4:00 AM)
Average52 °F70%30.13 "Hg
* Reported Apr 12 6:00 PM — Apr 27 6:00 PM, Bad Neuenahr-Ahrweiler, Weather by CustomWeather, © 2015

Note: Actual official high and low records may vary slightly from our data, if they occured in-between our weather recording intervals... More about our weather records

Advertising

Bad Neuenahr-Ahrweiler weather history for previous 24 hours

 ConditionsComfort  
Time TempWeatherWind HumidityBarometerVisibility
6:00 PM
Mon, Apr 27
48 °FOvercast.2 mph73%29.78 "Hg25 mi
5:00 PM47 °FOvercast.5 mph72%29.78 "Hg16 mi
4:00 PM47 °FOvercast.6 mph75%29.78 "Hg12 mi
3:00 PM46 °FOvercast.5 mph82%29.78 "Hg11 mi
2:00 PM45 °FOvercast.5 mph86%29.78 "Hg11 mi
1:00 PM46 °FOvercast.6 mph87%29.77 "Hg9 mi
12:00 PM45 °FOvercast.6 mph91%29.76 "Hg9 mi
11:00 AM44 °FLow clouds.6 mph97%29.75 "Hg9 mi
10:00 AM43 °FFog.6 mph100%29.74 "Hg3 mi
9:00 AM43 °FDense fog.6 mph100%29.72 "Hg1 mi
8:00 AM44 °FRain. Dense fog.5 mph100%29.70 "Hg1 mi
7:00 AM45 °FRain. Low clouds.6 mph100%29.68 "Hg1 mi
6:00 AM46 °FRain. Dense fog.5 mph100%29.67 "Hg0 mi
5:00 AM48 °FLight rain. Low clouds.5 mph100%29.65 "Hg0 mi
4:00 AM50 °FLight rain. Low clouds.5 mph99%29.64 "Hg2 mi
3:00 AM50 °FLight freezing rain. Low clouds.5 mph99%29.65 "Hg2 mi
2:00 AM51 °FLight rain. Low clouds.5 mph99%29.65 "Hg2 mi
1:00 AM52 °FRain. Low clouds.3 mph99%29.66 "Hg1 mi
12:00 AM53 °FLight rain. Low clouds.1 mph99%29.66 "Hg2 mi
11:00 PM
Sun, Apr 26
53 °FLight rain. Low clouds.2 mph99%29.67 "Hg2 mi
10:00 PM53 °FLight rain. Overcast.2 mph99%29.68 "Hg1 mi
9:00 PM53 °FFog.2 mph97%29.68 "Hg3 mi
8:00 PM54 °FLow clouds.2 mph96%29.68 "Hg6 mi
7:00 PM54 °FLight freezing rain. Overcast.1 mph93%29.69 "Hg6 mi
Weather by CustomWeather, © 2015

See weather overviewHow to use our weather pages